www.pogodaiklimat.ru

Погода и климат >> Архив погоды >> Грузия >> ???????


АРХИВ ПОГОДЫ в ???????

Время (UTC), дата Ветер
(напр.,м/с)
 
Видим.   Явления Облачность Т
(С)
Тd
(С)
f
(%)
Тe
(С)
Тes
(С)
Комфортность P
(гПа)
Po
(гПа)
Тmin
(С)
Tmax
(С)
R
(мм)
R24
(мм)
S
(см)
15 9.10 штиль 0 50 км 10/10 600 м
[Sc]
+20.5 +10.9 54 +22 +22 комфорт 1018.1 969.1 +24.2
18 9.10 штиль 0 н/о 9/9 600 м
[Sc]
+16.7 +11.3 70 +17 +17 тепло 1020.3 970.6 +24.2
21 9.10 штиль 0 н/о 10/10 600 м
[Sc]
+16.1 +11.1 72 +16 +16 тепло 1020.9 971.1
00 10.10 штиль 0 н/о 10/10 600 м
[Sc]
+13.9 +10.6 80 +14 +14 тепло 1020.9 970.6
03 10.10 штиль 0 10 км 9/9 600 м
[Cb calv]
+13.7 +10.4 80 +13 +13 по сезону 1021.5 971.1
06 10.10 штиль 0 50 км 10/0 600 м
[As op]
+16.4 +11.0 70 +16 +17 тепло 1021.5 971.7 +13.4
09 10.10 Ю 3 20 км {дождь} 10/0 600 м
[As op]
+18.3 +12.6 69 +19 +20 тепло 1020.7 971.2
12 10.10 Ю 4 50 км 5/3 600 м
[Cu hum As trans Ci fib]
+21.3 +12.7 58 +24 +25 комфорт 1019.3 970.4
15 10.10 Ю 6 20 км 4/3 600 м
[Cu hum As trans]
+18.7 +12.6 68 +19 +19 тепло 1018.7 970.6 +21.6 0.0
18 10.10 штиль 0 н/о 4/3 600 м
[Cu hum As trans]
+14.9 +12.3 84 +15 +15 тепло 1021.5 971.3 +21.6 0.0
21 10.10 штиль 0 н/о 3/3 600 м
[Cu hum]
+13.9 +12.1 89 +13 +13 по сезону 1021.8 971.4
00 11.10 штиль 0 н/о 3/3 600 м
[Cu hum]
+13.3 +12.4 94 +13 +13 тепло 1021.6 971.2
03 11.10 штиль 0 50 км 3/3 600 м
[Cu hum]
+11.5 +11.1 97 +11 +11 по сезону 1022.1 971.4
06 11.10 штиль 0 50 км 3/0
[Ac trans]
+17.4 +11.8 70 +17 +22 тепло 1021.1 971.4
09 11.10 ЮВ 3 50 км 3/0
[As trans Cs]
+22.8 +12.5 52 +26 +32 жарко 1018.8 970.3
12 11.10 ЮВ 6 50 км 4/0
[As trans Ci]
+23.3 +12.5 51 +26 +27 жарко 1017.3 968.9
15 11.10 50 км ясно +19.2 +12.4 65 1017.8 968.7 +23.8
18 11.10 З 2 н/о ясно +15.8 +13.5 86 +16 +16 тепло 1019.8 970.2 +23.8
21 11.10 н/о 9/9 600 м
[Sc]
+15.6 +13.8 89 1021.1 971.1
00 12.10 штиль 0 н/о 10/10 600 м
[Sc]
+16.2 +13.9 86 +16 +16 тепло 1020.4 970.7
03 12.10 штиль 0 50 км 10/10 600 м
[Sc]
+14.1 +13.7 97 +14 +14 по сезону 1021.4 971.2
06 12.10 В 2 20 км 10/10 600 м
[Sc]
+18.1 +14.7 81 +19 +19 тепло 1021.8 972.3
09 12.10 В 5 10 км 6/5 600 м
[Cu hum Ac lent]
+22.7 +14.0 58 +26 +28 жарко 1020.9 972.3
12 12.10 ЮВ 5 50 км 4/4 600 м
[Cu hum]
+23.5 +12.7 51 +26 +27 жарко 1020.0 971.4
15 12.10 ЮВ 7 50 км 8/8 600 м
[Cb calv]
+21.7 +13.8 61 +25 +25 комфорт 1021.6 972.8 +24.0
18 12.10 ЮВ 7 н/о 10/0 600 м
[As op]
+19.2 +14.8 76 +20 +20 тепло 1024.8 975.3 +24.0
21 12.10 ЮВ 5 н/о 10/0 600 м
[As op]
+18.5 +15.1 81 +19 +19 тепло 1026.6 976.9
00 13.10 Ю 4 н/о 10/0 600 м
[As op]
+17.8 +14.1 79 +18 +18 тепло 1026.3 976.6
03 13.10 Ю 7 н/о 10/0 600 м
[As op]
+15.9 +11.9 77 +14 +14 по сезону 1028.4 978.1
06 13.10 Ю 6 10 км 10/0 600 м
[As op]
+15.7 +12.4 81 +14 +15 по сезону 1029.8 979.4
09 13.10 ЮВ 7 20 км 10/0 600 м
[As op]
+15.5 +12.2 81 +14 +14 прохладно 1029.2 978.9
12 13.10 ЮВ 6 20 км 10/0 600 м
[As op]
+15.3 +12.0 81 +14 +14 холодно 1028.1 977.8
15 13.10 ЮВ 5 10 км 10/0 600 м
[As op]
+14.9 +11.3 79 +13 +13 прохладно 1027.7 977.2 +15.7
18 13.10 ЮВ 5 н/о 10/0 600 м
[As op]
+14.4 +11.4 82 +13 +13 по сезону 1027.7 977.2 +15.7
21 13.10 ЮВ 4 н/о 10/0
[As op]
+13.9 +11.1 83 +12 +12 по сезону 1027.4 976.8
00 14.10 Ю 3 н/о 10/0 600 м
[As op]
+13.5 +10.9 84 +12 +12 по сезону 1025.6 975.0
03 14.10 Ю 3 10 км 10/0 600 м
[As op]
+13.4 +11.0 85 +12 +12 по сезону 1024.9 974.4
06 14.10 В 3 20 км 10/0 600 м
[As op]
+14.7 +11.5 81 +14 +14 по сезону 1025.0 974.7
09 14.10 Ю 4 50 км 10/10 600 м
[Sc]
+16.8 +10.4 66 +16 +16 по сезону 1023.8 973.9
12 14.10 Ю 4 50 км 5/5 600 м
[Sc diur, vesp]
+17.1 +10.7 66 +17 +18 по сезону 1022.0 972.2
15 14.10 Ю 5 50 км 8/5 600 м
[Sc Ac lent Ci]
+15.3 +11.0 76 +14 +14 по сезону 1021.8 971.8 +17.6
18 14.10 н/о 3/3 600 м
[Cu hum]
+12.2 +10.7 91 1022.9 972.4 +17.6
21 14.10 штиль 0 н/о 9/9 600 м
[Sc diur, vesp]
+12.0 +10.6 91 +11 +11 по сезону 1023.0 972.8
00 15.10 штиль 0 н/о 10/10 600 м
[Sc]
+13.3 +11.2 87 +13 +13 тепло 1023.1 972.7
03 15.10 штиль 0 н/о 8/6 600 м
[Sc Ac lent]
+12.8 +11.1 89 +12 +12 по сезону 1023.0 972.5
06 15.10 штиль 0 20 км 10/10 600 м
[Sc]
+15.2 +10.6 74 +15 +15 по сезону 1023.4 973.3
09 15.10 штиль 0 50 км 4/4 600 м
[Cu hum]
+20.5 +10.4 52 +22 +29 комфорт 1021.7 972.6
12 15.10 ЮВ 6 50 км 4/0
[Ac trans]
+21.4 +10.4 49 +23 +24 комфорт 1020.2 971.2
15 15.10 штиль 0 н/о ясно +17.2 +11.3 68 +17 +17 тепло 1022.3 972.6 +22.1
18 15.10 штиль 0 н/о 9/9 600 м
[Cu hum]
+15.9 +11.4 75 +16 +16 тепло 1024.8 974.7 +22.1
21 15.10 Ю 3 н/о 9/9 600 м
[Cu hum]
+16.8 +11.2 70 +17 +17 тепло 1025.4 975.4
00 16.10 штиль 0 н/о 9/9 600 м
[Cu hum]
+15.3 +11.5 78 +15 +15 тепло 1025.7 975.5
03 16.10 ЮВ 4 10 км 10/10 600 м
[Sc diur, vesp]
+15.3 +11.4 78 +14 +14 тепло 1025.6 975.4
06 16.10 ЮВ 6 50 км 10/10 600 м
[Sc diur, vesp]
+14.9 +10.3 74 +13 +13 по сезону 1028.1 977.6
09 16.10 Ю 6 50 км 8/6 600 м
[Cu hum Ac lent]
+18.1 +11.3 64 +18 +18 тепло 1027.6 977.8

 

Местоположение метеостанции ??????? (Грузия): широта 41.70 долгота 44.75 высота над уровнем моря 403 м.

В архиве по умолчанию представлена погода в ??????? за последнюю неделю. Архивные данные за месяц целиком и за предыдущие месяцы, начиная с января 2011 года, Вы можете получить, выбрав интересующий диапазон дат из раскрывающегося списка и нажав кнопку "Ввод!".


*Определитесь, кто Вы:
робот инопланетянин человек

Внимание! Время в таблицах - всемирное. Для получения местного времени необходимо прибавить поправку, которая в ??????? равна 4 ч.

Смотрите также архив погоды в соседних городах и на ближайших метеорологических станциях:

Погода в ???????? (Грузия) (32 км)
Погода в ??????? (Грузия) (58 км)
Погода в ????? (Грузия) (61 км)
Погода в ?????????? (Грузия) (72 км)
Погода в Идйеване (Армения) (98 км)
Погода в Ванадзоре (Армения) (100 км)
Погода в Ашотске (Армения) (116 км)
Погода в Рокском Перевале (Северная Осетия, Россия) (117 км)
Погода в Наре (Северная Осетия, Россия) (125 км)
Погода в ???????? (Грузия) (126 км)

Пояснения к столбцам:

Ветер - указаны скорость ветра в м/с - средняя за 10 мин, порывы в срок и между сроками (в фигурных скобках) и направление, откуда дует ветер: С - северный, СВ - северо-восточный, В - восточный, ЮВ - юго-восточный, Ю - южный, ЮЗ - юго-западный, З - западный, СЗ - северо-западный.
Видимость - горизонтальная дальность видимости в метрах или километрах. При видимости от 1 до 10 км при отсутствии осадков обычно наблюдается дымка, при ухудшении видимости до 1 км и менее - туман. В сухую погоду видимость может ухудшаться дымом, пылью или мглою.
Явления - указаны атмосферные явления, наблюдавшиеся в срок или в последний час перед сроком; фигурными скобками обозначены явления, наблюдавшиеся между сроками (за 1-3 часа до срока); квадратными скобками обозначены град или гололедные отложения с указанием их диаметра в мм.
Облачность - указаны через наклонную черту общая и нижняя облачность в баллах и высота нижней границы облаков в метрах; квадратными скобками обозначены формы облаков: Ci - перистые, Cs - перисто-слоистые, Cc - перисто-кучевые, Ac - высококучевые, As - высокослоистые, Sc - слоисто-кучевые, Ns - слоисто-дождевые, Cu - кучевые, Cb - кучево-дождевые. Подробнее классификацию облаков см. в Атласе облаков (PDF).
T - Температура воздуха - температура, измеренная на высоте 2 м над землей.
Td - Температура точки росы - температура, при понижении до которой содержащийся в воздухе водяной пар достигнет насыщения.
f - Относительная влажность воздуха - влажноcть воздуха, измеренная на высоте 2 м над землей.
Te - Эффективная температура - температура, которую ощущает одетый по сезону человек в тени. Характеристика душности погоды. При расчете учитывается влияние влажности воздуха и скорости ветра на теплоощущения человека.
Tes - Эффективная температура на солнце - температура, которую ощущает человек, с поправкой на солнечный нагрев. Характеристика знойности погоды. Зависит от высоты солнца над горизонтом, облачности и скорости ветра. Ночью, в пасмурную погоду, а также при ветре 12 м/с и более поправка равна нулю.
P - Атмосферное давление - приведенное к уровню моря атмосферное давление.
Po - Атмосферное давление - измеренное на уровне метеостанции атмосферное давление.
Tmin - Минимальная температура - минимум температуры воздуха на высоте 2 м над землей.
Tmax - Максимальная температура - максимум температуры воздуха на высоте 2 м над землей.
R - Количество осадков - Количество выпавших осадков за период времени, мм. При наведении курсора мыши на число - период времени, за который выпало указанное количество осадков.
R24 - Количество осадков - Количество выпавших осадков за 24 часа, мм.
S - Снежный покров - Высота снежного покрова, см. При наведении курсора мыши на число - состояние снежного покрова и степень покрытия местности в баллах.